When you browse on this site, cookies collect data to enhance your experience and personalize the content and advertising you see.
Visit our Privacy Policy to learn more. By continuing to use the site, you agree to this use of cookies and data.
  • în România
  • Lista ţărilor
  • Pe 7 zile
  • Temperatura apei
  • Hartă satelitară
  • Meteo pe hartă
  • Widget-uri
  • user-avatar
    Intrare

    Meteo pe oră la Niezwojowice

    Astăzi, 17 Decembrie, Luni

    Timp Temperatura Precipitaţii Vânt Presiune Umiditate
    00:00 -4°C° 0 mm 1 m/s 741 mmHg 91%
    01:00 -4°C° 0 mm 1 m/s 742 mmHg 91%
    02:00 -4°C° 0 mm 1 m/s 741 mmHg 90%
    03:00 -4°C° 0 mm 1 m/s 741 mmHg 90%
    04:00 -6°C° 0 mm 1 m/s 741 mmHg 90%
    05:00 -6°C° 0 mm 1 m/s 741 mmHg 89%
    06:00 -4°C° 0 mm 1 m/s 742 mmHg 88%
    07:00 -4°C° 0 mm 1 m/s 742 mmHg 87%
    08:00 -4°C° 0 mm 1 m/s 742 mmHg 85%
    09:00 -3°C° 0 mm 1 m/s 743 mmHg 82%
    10:00 -2°C° 0 mm 1 m/s 743 mmHg 80%
    11:00 -1°C° 0 mm 1 m/s 743 mmHg 79%
    12:00 -1°C° 0 mm 1 m/s 743 mmHg 78%
    13:00 0°C° 0 mm 1 m/s 743 mmHg 77%
    14:00 -1°C° 0 mm 1 m/s 744 mmHg 80%
    15:00 -2°C° 0 mm 1 m/s 744 mmHg 83%
    16:00 -2°C° 0 mm 1 m/s 744 mmHg 87%
    17:00 -3°C° 0 mm 1 m/s 745 mmHg 87%
    18:00 -3°C° 0 mm 1 m/s 745 mmHg 88%
    19:00 -3°C° 0 mm 1 m/s 745 mmHg 89%
    20:00 -5°C° 0 mm 2 m/s 746 mmHg 89%
    21:00 -5°C° 0 mm 2 m/s 746 mmHg 90%
    22:00 -5°C° 0 mm 2 m/s 747 mmHg 90%
    23:00 -4°C° 0 mm 2 m/s 747 mmHg 91%

    Mâine, 18 Decembrie, Marţi

    Timp Temperatura Precipitaţii Vânt Presiune Umiditate
    00:00 -4°C° 0 mm 2 m/s 747 mmHg 91%
    01:00 -2°C° 0 mm 1 m/s 747 mmHg 92%
    02:00 -1°C° 0 mm 1 m/s 747 mmHg 92%
    03:00 -1°C° 0 mm 1 m/s 747 mmHg 92%
    04:00 -1°C° 0 mm 1 m/s 747 mmHg 93%
    05:00 -1°C° 0 mm 1 m/s 748 mmHg 92%
    06:00 -1°C° 0 mm 1 m/s 748 mmHg 92%
    07:00 -2°C° 0 mm 0 m/s 748 mmHg 92%
    08:00 -2°C° 0 mm 0 m/s 748 mmHg 92%
    09:00 -1°C° 0 mm 0 m/s 748 mmHg 91%
    10:00 +1°C° 0 mm 1 m/s 748 mmHg 90%
    11:00 0°C° 0 mm 0 m/s 748 mmHg 90%
    12:00 0°C° 0 mm 0 m/s 748 mmHg 90%
    13:00 +1°C° 0 mm 0 m/s 748 mmHg 91%
    14:00 0°C° 0 mm 0 m/s 748 mmHg 91%
    15:00 -1°C° 0 mm 0 m/s 748 mmHg 92%
    16:00 -1°C° 0 mm 0 m/s 748 mmHg 92%
    17:00 -1°C° 0 mm 1 m/s 748 mmHg 93%
    18:00 -1°C° 0 mm 1 m/s 748 mmHg 93%
    19:00 -1°C° 0 mm 1 m/s 747 mmHg 94%
    20:00 -1°C° 0 mm 1 m/s 747 mmHg 94%
    21:00 -1°C° 0 mm 1 m/s 747 mmHg 94%
    22:00 -1°C° 0 mm 1 m/s 747 mmHg 94%
    23:00 -4°C° 0 mm 2 m/s 747 mmHg 94%

    Poimâine, 19 Decembrie, Miercuri

    Timp Temperatura Precipitaţii Vânt Presiune Umiditate
    00:00 -4°C° 0 mm 2 m/s 747 mmHg 94%
    01:00 -5°C° 0 mm 2 m/s 747 mmHg 94%
    02:00 -5°C° 0 mm 2 m/s 747 mmHg 94%
    03:00 -5°C° 0 mm 2 m/s 747 mmHg 93%
    04:00 -6°C° 0 mm 2 m/s 746 mmHg 93%
    05:00 -6°C° 0 mm 2 m/s 746 mmHg 92%
    06:00 -6°C° 0 mm 2 m/s 746 mmHg 92%
    07:00 -6°C° 0 mm 2 m/s 746 mmHg 91%
    08:00 -6°C° 0 mm 3 m/s 746 mmHg 89%
    09:00 -6°C° 0 mm 3 m/s 746 mmHg 87%
    10:00 -5°C° 0 mm 3 m/s 746 mmHg 85%
    11:00 -4°C° 0 mm 3 m/s 746 mmHg 84%
    12:00 -4°C° 0 mm 3 m/s 746 mmHg 84%
    13:00 -2°C° 0 mm 3 m/s 745 mmHg 83%
    14:00 -4°C° 0 mm 3 m/s 745 mmHg 86%
    15:00 -5°C° 0 mm 3 m/s 745 mmHg 88%
    16:00 -6°C° 0 mm 3 m/s 745 mmHg 91%
    17:00 -6°C° 0 mm 3 m/s 745 mmHg 91%
    18:00 -6°C° 0 mm 3 m/s 745 mmHg 91%
    19:00 -6°C° 0 mm 3 m/s 745 mmHg 91%
    20:00 -6°C° 0 mm 3 m/s 745 mmHg 90%
    21:00 -7°C° 0 mm 3 m/s 745 mmHg 90%
    22:00 -7°C° 0 mm 3 m/s 744 mmHg 90%
    23:00 -7°C° 0 mm 3 m/s 744 mmHg 90%

    20 Decembrie, Joi

    Timp Temperatura Precipitaţii Vânt Presiune Umiditate
    00:00 -7°C° 0 mm 3 m/s 744 mmHg 89%
    01:00 -7°C° 0 mm 3 m/s 744 mmHg 89%
    02:00 -6°C° 0 mm 2 m/s 744 mmHg 88%
    03:00 -6°C° 0 mm 2 m/s 744 mmHg 88%
    04:00 -6°C° 0 mm 2 m/s 743 mmHg 87%
    05:00 -6°C° 0 mm 2 m/s 744 mmHg 87%
    06:00 -6°C° 0 mm 2 m/s 744 mmHg 86%
    07:00 -6°C° 0 mm 2 m/s 744 mmHg 86%
    08:00 -5°C° 0 mm 2 m/s 744 mmHg 84%
    09:00 -4°C° 0 mm 2 m/s 744 mmHg 83%
    10:00 -4°C° 0 mm 2 m/s 744 mmHg 82%
    11:00 -3°C° 0 mm 2 m/s 743 mmHg 82%
    12:00 -2°C° 0 mm 2 m/s 743 mmHg 81%
    13:00 0°C° 0 mm 1 m/s 743 mmHg 81%
    14:00 0°C° 0 mm 1 m/s 743 mmHg 83%
    15:00 0°C° 0 mm 1 m/s 742 mmHg 85%
    16:00 -1°C° 0 mm 1 m/s 742 mmHg 87%
    17:00 -1°C° 0 mm 1 m/s 742 mmHg 88%
    18:00 -1°C° 0 mm 1 m/s 742 mmHg 88%
    19:00 -1°C° 0 mm 1 m/s 742 mmHg 89%
    20:00 -1°C° 0 mm 1 m/s 742 mmHg 89%
    21:00 -1°C° 0 mm 1 m/s 742 mmHg 90%
    22:00 -1°C° 0 mm 1 m/s 742 mmHg 90%
    23:00 -1°C° 0.1 mm 1 m/s 742 mmHg 91%

    21 Decembrie, Vineri

    Timp Temperatura Precipitaţii Vânt Presiune Umiditate
    00:00 -1°C° 0.1 mm 1 m/s 742 mmHg 91%
    01:00 -1°C° 0.1 mm 1 m/s 742 mmHg 92%
    02:00 -1°C° 0.2 mm 1 m/s 742 mmHg 92%
    03:00 -1°C° 0.2 mm 1 m/s 742 mmHg 93%
    04:00 -1°C° 0.2 mm 1 m/s 741 mmHg 94%
    05:00 -1°C° 0.3 mm 1 m/s 741 mmHg 94%
    06:00 -1°C° 0.3 mm 1 m/s 742 mmHg 95%
    07:00 -1°C° 0.3 mm 1 m/s 742 mmHg 96%
    08:00 0°C° 0.3 mm 1 m/s 742 mmHg 95%
    09:00 0°C° 0.3 mm 1 m/s 742 mmHg 95%
    10:00 -2°C° 0.3 mm 2 m/s 742 mmHg 94%
    11:00 -1°C° 0.3 mm 2 m/s 742 mmHg 94%
    12:00 -1°C° 0.3 mm 2 m/s 742 mmHg 95%
    13:00 -1°C° 0.3 mm 2 m/s 741 mmHg 95%
    14:00 -1°C° 0.2 mm 2 m/s 741 mmHg 95%
    15:00 -1°C° 0.2 mm 2 m/s 741 mmHg 94%
    16:00 -1°C° 0.2 mm 2 m/s 742 mmHg 94%
    17:00 -1°C° 0.1 mm 2 m/s 742 mmHg 94%
    18:00 -1°C° 0.1 mm 2 m/s 742 mmHg 93%
    19:00 -1°C° 0.1 mm 2 m/s 742 mmHg 93%
    20:00 -1°C° 0 mm 2 m/s 741 mmHg 92%
    21:00 -2°C° 0 mm 2 m/s 741 mmHg 91%
    22:00 -3°C° 0 mm 2 m/s 741 mmHg 91%
    23:00 -2°C° 0 mm 2 m/s 741 mmHg 90%

    22 Decembrie, Sâmbătă

    Timp Temperatura Precipitaţii Vânt Presiune Umiditate
    00:00 -2°C° 0 mm 2 m/s 741 mmHg 90%
    01:00 -2°C° 0 mm 2 m/s 741 mmHg 90%
    02:00 -2°C° 0 mm 2 m/s 741 mmHg 90%
    03:00 -3°C° 0 mm 2 m/s 741 mmHg 90%
    04:00 -3°C° 0 mm 2 m/s 740 mmHg 89%
    05:00 -2°C° 0.1 mm 2 m/s 740 mmHg 90%
    06:00 -2°C° 0.1 mm 2 m/s 740 mmHg 90%
    07:00 -1°C° 0.1 mm 2 m/s 740 mmHg 90%
    08:00 -1°C° 0.3 mm 2 m/s 741 mmHg 92%
    09:00 -1°C° 0.3 mm 2 m/s 741 mmHg 93%
    10:00 +1°C° 0.3 mm 2 m/s 741 mmHg 94%
    11:00 +1°C° 0.3 mm 2 m/s 741 mmHg 95%
    12:00 +1°C° 0.3 mm 2 m/s 741 mmHg 96%
    13:00 +2°C° 0.3 mm 1 m/s 741 mmHg 98%
    14:00 +2°C° 0.2 mm 1 m/s 741 mmHg 96%
    15:00 +2°C° 0.2 mm 1 m/s 741 mmHg 95%
    16:00 +2°C° 0.2 mm 1 m/s 741 mmHg 94%
    17:00 +1°C° 0.1 mm 1 m/s 742 mmHg 94%
    18:00 +1°C° 0.1 mm 1 m/s 742 mmHg 94%
    19:00 +1°C° 0.1 mm 1 m/s 742 mmHg 94%
    20:00 +1°C° 0.1 mm 1 m/s 743 mmHg 94%
    21:00 +1°C° 0.1 mm 1 m/s 743 mmHg 94%
    22:00 0°C° 0.1 mm 0 m/s 743 mmHg 95%
    23:00 0°C° 0.1 mm 0 m/s 744 mmHg 95%
    Arată mai mult